sat.trackr.live / text

‹ back to catalog

SNAP-3 JIMI

NORAD 40975 · 2015-058M

PAYLOAD ACTIVE UNKNOWN

§ Identity

Operator
Country
US
Launch date
2015-10-08
Launch site
AFWTR
Launch vehicle
Mass (kg)
RCS (m²)

Purposes: tech_demo

External: N2YO · Heavens-Above · Gunter

§ Orbital elements

Epoch: 2026-09-15T11:52:21.190944Z

Period
95.80 min
Inclination
64.7637°
Eccentricity
0.0113574
Mean motion
15.03146560 rev/d
Perigee alt
478.4 km
Apogee alt
636.0 km
Semi-major
6,935.3 km
B*
2.8882e-4
RAAN
293.8260°
Arg perigee
20.5290°
Mean anomaly
340.0337°
Rev number
12,779

§ Raw data

SNAP-3 JIMI1 40975U 15058M   26258.49468971  .00004314  00000+0  28882-3 0  99972 40975  64.7637 293.8260 0113574  20.5290 340.0337 15.03146560127796

JSON: /api/v1/satellites/40975 · /tle

For live sub-satellite position, see the globe view (requires WebGL).

§ Visibility from observer

Set your observer location to see the next 7 days of passes ≥ 10°. The values pass through the URL so the page stays shareable.

No JS? Fill the form by hand. The geolocation button needs JavaScript.